Location: Unspecified
(0.0000°N, 0.0000°E)
Time: 02:29:09
(UTC+02:00)

Centaur D-1AR AC-41 - Visible Passes

Search period start: 29 June 2017 00:00
Search period end: 09 July 2017 00:00
Orbit: 561 x 36278 km, 21.2° (Epoch: 28 June)

Date Brightness Start Highest point End Pass type
(mag) Time Alt. Az. Time Alt. Az. Time Alt. Az.
29 Jun 9.6 21:03:48 10° ENE 01:12:24 31° ENE 02:47:20 10° ENE visible
01 Jul 9.5 02:09:26 10° W 03:40:09 29° WNW 07:28:28 10° WNW visible
01 Jul 7.1 23:16:15 10° W 00:45:27 63° NW 09:27:54 10° ESE visible
02 Jul 7.9 20:40:36 10° WSW 21:00:27 84° NNW 06:55:39 10° E visible
03 Jul 6.6 18:09:44 10° SW 02:34:18 51° NE 04:16:07 10° E visible
04 Jul 10.0 22:12:29 10° ENE 23:54:09 16° ENE 00:56:51 10° ENE visible
06 Jul 6.3 00:37:58 10° W 02:19:13 44° WNW 10:40:21 10° SE visible
06 Jul 7.8 21:55:33 10° W 22:42:11 71° NNW 08:10:00 10° ESE visible
07 Jul 7.1 19:22:26 10° WSW 19:34:51 85° SSE 05:35:41 10° E visible
